RH
20 26 34 37 38 40 39 37 36 34 34 33 31 29 28 26 25 25 24 23 22 21 22 27 33 36 38 41 41 41 44 41 39 36 25 17 13 8 8 8 8 9 8 10 10 8 8 6 8 8 8 9 8 29 47 42 40 36 43 63 71 64 48 45 50 51 53 53 53 53 59 61 58 56 52 50 49 46 45 44 45 52 57 57 65 83 86 78
8 11 21 33 40 39 37 34 30 27 26 26 26 26 26 27 26 25 25 23 22 22 19 19 22 28 30 31 39 46 47 45 44 41 35 33 27 16 11 9 9 9 9 11 11 10 9 7 8 7 7 17 22 44 66 58 43 36 51 72 68 58 50 47 50 52 54 53 49 50 56 58 55 53 50 48 46 45 44 42 42 40 39 38 44 60 62 56
6 5 8 19 31 35 36 33 27 22 18 16 15 15 16 18 19 17 18 20 22 22 19 16 12 15 15 14 21 28 29 29 29 25 21 26 27 22 16 12 13 13 13 13 11 10 10 8 9 8 10 29 42 46 56 54 44 46 58 68 64 57 55 52 51 51 52 50 41 40 47 49 46 46 48 46 42 42 41 41 42 39 37 34 33 37 37 37
8 9 9 11 16 20 23 24 22 20 19 21 21 18 15 14 14 11 10 11 15 17 16 13 9 8 10 8 10 11 12 12 14 15 14 16 19 19 15 13 15 17 16 13 11 11 9 9 8 9 13 29 47 45 44 41 38 49 53 51 54 55 54 51 50 50 47 43 35 30 36 37 32 33 40 43 40 37 37 37 38 39 38 36 33 30 28 26
21 23 23 22 21 20 21 21 22 23 23 24 24 22 20 17 16 15 14 12 11 14 14 12 11 10 11 11 10 10 13 17 19 20 19 20 20 20 18 16 17 17 18 14 12 12 10 11 8 9 13 23 42 46 41 38 32 40 41 35 40 45 44 39 40 41 35 34 31 27 28 26 22 22 28 34 36 34 34 34 34 36 37 35 33 28 25 23
30 29 29 28 28 27 26 27 27 28 26 24 21 19 19 18 18 18 18 18 16 16 16 14 13 12 12 12 12 11 14 19 23 22 20 20 20 20 19 18 19 18 18 16 13 13 10 11 10 10 10 13 36 46 44 42 31 31 37 34 34 34 32 27 28 30 26 27 26 24 25 22 20 19 19 23 26 28 31 33 34 33 32 33 32 27 24 23
30 29 31 31 32 32 31 33 34 34 33 31 27 23 20 18 20 21 20 17 15 14 13 13 12 11 11 11 11 11 12 14 17 17 16 17 17 17 17 17 18 17 17 15 13 12 11 11 10 12 13 16 34 45 46 44 32 31 36 30 28 26 23 23 23 24 24 25 24 24 24 22 21 18 17 18 19 24 29 30 32 32 30 30 28 25 23 23
31 31 33 35 36 36 36 36 36 36 36 35 33 29 25 22 21 21 19 15 12 11 12 12 12 11 11 11 11 11 11 13 14 15 15 16 15 15 15 15 14 14 14 14 12 11 10 11 12 15 21 27 37 43 42 40 31 29 27 18 18 19 19 20 20 20 20 20 21 23 24 23 21 19 18 18 18 21 26 27 27 27 26 26 25 24 23 23
33 34 35 36 36 33 31 29 27 27 29 31 33 31 26 24 22 19 16 13 10 10 12 11 12 11 11 11 10 13 16 16 15 14 14 14 14 14 13 13 13 12 12 12 12 12 11 12 15 19 24 29 34 37 36 33 29 26 23 18 17 17 17 18 16 17 16 17 19 21 23 22 20 21 19 18 17 18 23 24 23 24 24 24 23 23 23 23
35 36 34 32 26 21 17 14 12 12 14 18 21 22 22 21 18 15 13 10 8 9 11 11 11 10 11 11 11 17 21 17 14 13 12 12 12 13 13 13 13 12 12 12 12 12 12 13 15 18 20 22 24 27 26 22 21 20 20 20 17 16 15 15 14 14 15 15 16 18 19 18 19 21 18 17 17 19 22 23 22 23 23 23 23 23 23 23
36 32 27 21 15 13 13 12 11 9 8 8 9 11 12 13 12 11 10 8 8 9 10 11 12 11 12 12 13 18 18 14 13 12 10 9 9 9 11 11 11 12 11 12 12 12 13 12 13 14 15 16 16 17 17 15 15 14 15 16 15 15 15 15 15 15 16 16 16 17 19 19 19 19 19 19 19 21 23 23 24 24 23 24 24 24 25 25
27 21 17 15 14 15 15 15 15 12 9 7 6 8 8 10 9 9 8 9 11 11 12 13 13 13 13 13 14 15 14 12 11 10 8 8 7 8 8 8 8 9 9 10 12 12 13 13 13 13 13 14 14 14 15 14 14 14 16 16 15 16 16 16 16 16 17 18 18 20 22 21 19 21 22 22 23 23 23 24 24 24 25 25 25 26 26 27
15 13 14 15 17 18 18 18 16 13 11 7 6 7 8 9 9 9 10 12 13 13 13 13 13 14 14 15 14 14 12 10 9 9 9 8 8 8 7 8 8 8 9 8 9 11 12 13 13 13 14 14 14 15 16 15 16 16 17 17 17 17 19 19 19 21 21 20 20 22 24 21 20 23 25 24 25 25 24 25 25 25 26 25 26 26 26 27
11 15 19 21 23 23 20 19 15 12 10 7 6 7 9 10 10 12 11 12 12 11 12 13 14 15 15 16 15 13 11 9 10 9 9 9 9 9 9 9 9 9 9 8 9 10 10 12 13 14 14 14 14 15 16 16 16 17 17 17 19 23 28 29 27 27 26 23 22 24 24 22 22 23 23 23 24 25 25 25 26 26 26 26 27 27 27 28
20 24 27 27 28 26 21 17 13 11 10 8 8 9 11 12 12 12 11 10 10 11 12 12 14 15 14 16 15 12 10 9 9 9 9 9 9 9 10 10 10 10 10 10 11 10 11 12 13 14 14 15 16 16 17 18 17 18 20 21 25 30 34 34 32 31 30 26 25 25 25 24 25 24 24 25 25 25 26 26 27 27 29 29 29 29 30 31
27 29 28 28 29 25 20 16 12 11 11 10 11 11 13 13 13 12 11 11 11 12 11 12 15 15 14 14 12 11 11 10 9 9 9 9 10 10 10 10 10 10 9 10 11 11 12 13 14 15 16 16 16 17 24 30 27 26 29 30 30 31 32 33 32 32 32 31 28 27 27 26 24 24 24 25 25 25 25 25 25 26 27 29 30 31 31 32
28 28 26 27 27 23 20 17 13 12 12 12 11 11 12 12 12 12 12 11 11 12 11 12 13 13 16 15 11 11 10 10 9 9 9 9 10 10 10 9 7 8 8 9 11 12 14 15 18 17 16 19 18 23 32 37 37 36 38 39 34 31 31 33 34 35 35 34 32 29 27 20 16 17 17 16 17 18 18 19 19 19 20 21 23 24 25 27
27 27 26 27 25 23 22 19 15 12 11 12 12 11 11 11 11 11 11 12 12 13 13 13 11 15 23 18 10 10 9 9 8 7 8 8 8 8 8 7 6 8 8 10 13 15 16 14 16 18 21 27 27 30 36 38 41 42 43 40 35 33 31 30 35 38 37 35 32 28 22 14 8 9 9 7 7 7 7 7 9 10 9 8 9 10 12 14
29 29 27 26 25 24 24 23 20 17 14 13 12 12 12 12 13 12 12 13 12 13 12 12 10 13 20 14 8 9 8 7 6 6 7 6 7 6 7 6 8 9 8 17 24 21 17 14 23 31 33 37 35 30 32 33 34 35 33 29 26 25 25 27 32 33 34 33 25 17 12 7 3 3 3 2 2 2 2 2 2 3 2 2 2 2 4 5
31 31 30 29 27 26 26 25 25 23 20 18 14 13 13 12 14 14 12 12 13 12 12 13 11 11 12 9 8 7 6 6 6 7 6 7 7 7 9 8 8 10 9 19 25 17 12 16 32 42 38 37 35 30 27 23 23 24 22 22 24 26 29 33 35 33 31 25 13 7 5 2 1 1 1 5 5 2 2 2 2 2 2 2 2 2 2 2
32 32 31 32 31 29 28 27 27 26 24 23 20 16 13 12 14 14 11 11 13 13 13 14 14 14 11 8 8 5 6 7 6 8 7 8 8 7 9 7 11 22 20 16 15 12 13 18 29 37 34 29 27 25 21 17 19 19 16 20 27 31 34 35 38 35 26 16 6 2 2 1 3 3 3 8 8 2 2 3 2 2 2 2 2 2 2 2
31 31 31 31 32 32 32 30 29 28 25 25 24 20 17 14 12 11 9 11 14 13 14 16 15 13 10 7 7 6 7 7 6 8 7 6 7 6 7 7 13 24 21 14 14 21 30 32 31 31 25 19 15 16 17 16 16 15 16 24 30 32 33 31 29 24 14 7 2 2 6 4 2 4 4 7 6 3 3 3 2 2 2 2 2 2 2 2
30 30 29 29 30 31 33 33 32 30 27 26 25 23 19 16 13 11 10 11 13 12 13 15 13 10 9 8 7 7 6 6 7 7 6 6 6 4 5 7 11 13 11 10 13 21 31 36 33 27 18 12 12 13 15 13 14 19 23 27 29 26 25 19 12 8 5 1 3 13 18 7 2 7 5 5 5 4 5 4 3 4 2 2 2 2 2 2
34 34 32 32 33 32 32 35 35 33 32 29 26 24 21 17 14 12 11 11 11 13 14 14 11 9 9 8 7 6 4 6 8 6 5 5 4 4 5 6 8 8 8 9 11 13 17 21 20 17 13 11 11 12 11 7 11 27 33 26 21 13 9 6 2 3 1 2 14 29 25 8 3 8 5 5 7 6 7 4 2 3 2 2 2 2 2 2
37 35 34 34 35 35 35 35 35 35 34 32 28 25 23 18 14 12 11 12 18 20 16 13 11 9 9 7 5 4 4 9 8 4 5 4 3 5 5 6 6 6 8 8 10 10 10 11 10 9 8 8 9 8 6 4 6 22 32 28 21 10 3 2 2 4 5 9 22 30 28 16 6 5 5 6 8 8 7 4 2 3 3 3 3 2 2 2
36 33 32 29 30 33 33 32 33 34 34 33 29 26 23 19 14 10 10 16 27 27 18 14 12 9 8 7 4 3 8 12 6 3 5 3 3 4 4 5 5 5 7 5 7 12 11 9 7 6 7 6 6 4 3 4 2 9 18 20 16 7 2 2 2 6 9 11 16 19 28 27 12 5 8 9 10 10 7 4 4 5 4 4 4 3 3 3
37 35 31 25 24 25 25 27 29 31 33 33 31 27 23 18 12 8 15 29 32 26 17 12 10 9 8 6 3 3 7 8 5 4 4 2 3 4 3 4 3 5 5 3 12 19 12 6 5 5 5 4 3 4 4 3 1 4 8 9 6 2 2 2 2 5 7 10 15 16 25 33 24 12 10 10 9 10 7 6 6 5 5 5 4 4 3 3
36 36 30 21 20 21 21 22 23 27 32 33 31 27 21 16 10 8 24 38 30 17 13 10 9 7 6 4 3 3 4 4 4 5 3 3 4 4 3 4 4 5 4 3 12 15 6 3 4 4 3 3 3 4 4 2 2 3 4 3 2 2 2 2 4 5 9 21 27 20 26 40 32 13 8 9 8 9 9 7 6 5 5 6 5 4 3 3
35 34 28 20 21 24 24 23 24 26 29 30 27 24 19 13 8 12 29 35 22 13 12 9 7 6 4 3 3 3 3 4 4 4 4 4 4 4 4 5 4 4 4 4 5 5 3 3 4 3 3 3 2 3 2 2 2 2 2 3 1 3 3 5 11 11 18 36 34 21 27 37 27 10 7 9 7 10 10 7 8 7 6 6 5 5 5 4
34 32 26 21 22 23 22 23 25 25 25 25 22 20 15 8 10 26 40 30 15 13 11 7 6 4 4 3 3 4 4 4 4 4 5 4 5 5 4 6 6 5 7 9 7 5 4 3 3 3 3 2 2 3 2 2 3 2 3 3 3 6 8 13 20 20 31 44 33 24 29 29 22 12 6 7 8 8 8 8 8 7 6 6 6 8 8 7
32 30 24 20 20 17 15 17 18 19 19 18 17 14 10 9 14 30 36 21 13 14 9 5 6 3 3 3 4 5 4 5 5 4 5 4 5 5 5 8 6 6 14 16 10 7 6 6 6 3 3 3 2 3 3 2 4 5 4 7 12 14 14 21 26 30 44 46 28 24 27 21 20 14 5 7 8 7 8 8 8 7 7 7 8 10 10 10
31 27 20 16 14 10 9 10 11 12 12 11 13 8 9 20 25 26 23 14 15 17 7 5 5 2 4 4 4 5 5 6 5 5 6 5 6 5 5 7 3 7 20 18 10 8 8 8 8 7 4 4 4 3 4 6 8 9 8 13 20 20 18 24 29 31 39 34 19 17 18 16 16 10 6 8 8 8 9 8 9 9 9 9 10 11 11 11
28 21 16 11 8 7 7 8 7 9 9 8 10 6 12 30 31 23 18 10 9 11 5 5 4 2 5 4 4 6 5 6 5 5 6 5 6 6 6 7 3 6 13 10 8 10 10 11 11 9 6 5 6 4 5 8 9 10 11 13 18 20 23 28 27 26 29 23 14 14 16 16 13 7 8 10 9 11 10 9 10 9 9 10 10 10 11 12
22 16 11 8 7 7 7 7 7 8 7 7 7 6 16 29 23 14 12 7 5 6 4 5 4 3 5 5 6 6 5 7 6 5 6 5 6 6 6 6 6 6 5 6 12 12 12 15 12 8 7 7 7 5 6 7 6 8 11 12 12 13 20 27 27 28 31 26 17 15 17 17 12 9 11 10 10 10 9 9 10 8 9 10 10 10 11 12
16 11 8 7 7 7 7 7 7 6 6 7 6 8 17 23 17 11 8 5 5 4 3 5 5 5 5 5 6 6 5 7 6 6 6 6 6 6 6 6 6 6 5 10 16 12 11 14 11 9 10 8 7 7 6 7 7 9 10 12 12 9 12 19 21 18 21 27 23 17 15 13 9 10 10 10 11 10 9 10 9 9 10 10 10 12 12 13
12 8 7 7 7 7 7 7 7 7 6 7 7 10 16 20 16 11 7 6 5 4 4 5 6 6 6 6 7 6 6 6 6 7 7 7 7 7 7 7 7 7 6 8 11 9 10 13 12 11 10 8 7 7 7 7 9 11 12 12 13 12 10 14 19 15 19 33 32 19 16 13 11 13 10 10 12 10 11 12 11 11 11 10 11 11 12 14
8 7 8 8 8 8 8 7 7 8 7 8 9 12 17 18 13 8 6 6 5 4 4 6 9 9 7 7 7 6 7 6 7 8 7 8 9 9 8 8 8 8 7 7 7 9 11 11 10 10 9 10 9 8 8 9 9 10 12 12 12 14 15 16 23 28 34 43 34 19 18 18 17 17 12 10 12 12 13 13 13 13 12 12 12 12 13 15
7 8 9 9 9 8 8 7 8 9 9 9 9 12 14 13 8 6 5 5 5 5 5 6 8 8 7 7 6 7 7 6 8 8 7 9 11 11 11 9 9 9 8 8 7 9 10 8 10 12 12 12 11 11 10 10 11 11 12 12 12 18 22 21 26 34 39 44 37 24 19 18 17 15 11 11 12 13 13 13 13 13 13 14 14 14 15 17
7 9 9 9 9 8 8 8 8 9 10 9 8 10 9 7 6 6 4 4 4 5 5 5 6 6 7 7 6 7 7 6 8 8 8 11 12 12 11 9 9 9 8 9 8 8 9 9 11 12 13 13 12 12 12 11 13 15 15 16 14 16 21 20 23 30 36 42 39 30 26 22 16 12 11 12 12 13 14 14 14 14 14 16 17 17 19 20
8 9 9 9 8 8 8 7 8 9 9 8 9 10 8 6 5 5 4 5 5 5 6 6 6 7 7 7 7 7 7 7 7 7 8 9 9 9 10 10 9 9 9 9 8 9 10 11 12 12 14 15 13 13 13 12 13 14 15 18 17 17 17 19 20 20 27 39 40 37 33 22 12 12 13 13 13 13 14 14 14 15 16 17 18 20 20 20
9 9 9 8 7 7 7 7 8 9 8 8 8 8 7 6 5 5 4 4 5 6 6 6 6 6 6 7 7 7 7 8 7 7 7 8 8 9 10 10 9 9 9 9 9 10 11 12 13 13 12 12 11 12 12 13 14 14 15 15 16 18 17 24 31 22 18 28 32 35 37 24 11 13 14 12 13 13 13 15 15 16 17 18 19 20 20 18
6 7 8 7 6 5 6 7 7 7 7 6 6 7 7 5 5 5 4 4 5 5 6 6 6 6 7 7 7 7 8 8 8 8 8 8 9 9 9 10 9 9 9 9 10 10 11 14 14 13 12 12 13 13 14 16 15 15 17 16 18 21 19 24 34 29 23 24 23 30 40 27 12 12 13 12 14 14 14 15 16 17 19 20 20 20 18 17
4 5 7 6 5 5 5 6 7 7 6 5 6 6 6 5 5 5 4 5 5 5 6 6 6 6 7 7 7 7 7 8 9 9 9 9 9 9 9 9 9 10 10 10 10 11 13 15 15 14 13 11 12 14 15 17 18 18 18 17 18 21 20 22 26 26 28 29 26 35 42 27 11 12 14 13 14 15 16 17 18 21 22 22 22 21 20 19
4 4 5 5 5 4 5 6 6 6 5 5 6 5 5 5 5 5 5 5 5 5 6 6 6 7 7 7 7 7 7 9 9 9 9 9 8 9 9 9 9 10 10 10 11 12 14 15 17 20 23 21 18 20 21 19 20 20 18 18 19 17 20 26 27 29 33 28 24 35 39 22 11 13 13 14 16 16 17 19 21 23 25 25 25 24 24 23
4 4 5 5 4 4 5 5 6 6 5 5 5 5 5 5 5 5 5 5 5 6 6 6 6 6 7 7 7 7 7 8 8 8 8 8 9 9 9 9 9 9 10 11 11 12 14 14 16 23 30 30 26 24 23 20 20 21 19 19 20 18 20 23 25 34 39 27 21 31 29 16 12 14 14 15 18 18 20 23 26 27 29 28 27 25 24 23
4 5 5 5 5 5 5 5 6 6 6 5 5 5 5 5 5 5 5 5 6 6 6 7 7 7 7 7 7 7 7 7 8 8 8 8 8 8 9 9 9 9 10 10 11 13 15 14 13 16 20 20 17 15 15 18 21 21 20 19 19 22 25 24 24 29 30 25 26 28 24 18 16 14 14 16 18 20 21 24 27 28 28 27 25 24 24 24
4 6 6 5 5 5 5 6 6 6 5 6 6 5 5 5 5 5 6 6 6 6 7 7 7 7 8 7 8 8 8 8 8 8 8 9 8 8 9 9 9 10 10 11 12 14 17 16 12 13 14 12 11 10 12 18 20 20 21 19 18 23 28 31 30 24 21 29 31 22 18 24 20 14 16 17 18 20 22 23 26 26 25 26 25 25 26 27
5 6 6 6 6 6 6 6 6 6 6 5 5 5 5 5 6 6 6 6 6 6 7 7 7 7 7 7 8 8 8 8 8 8 8 8 8 9 9 9 10 10 10 12 12 14 19 18 12 13 15 13 12 12 13 18 19 21 24 21 17 22 28 31 28 21 22 31 28 16 16 22 20 16 16 17 19 23 24 25 26 27 28 28 27 28 29 30
5 6 6 6 6 6 6 6 6 6 5 5 5 5 5 5 6 6 6 7 7 7 7 7 7 7 7 8 8 7 8 8 8 9 9 9 9 9 9 9 9 9 11 12 13 15 20 18 14 17 20 16 14 13 15 21 22 24 27 22 16 18 23 27 27 23 28 35 27 21 22 20 16 16 17 19 24 26 25 26 29 31 32 33 34 36 36 36
5 5 5 6 6 5 5 5 5 5 5 5 5 5 6 6 6 6 7 7 7 7 7 7 7 8 8 8 8 8 8 8 8 9 9 10 10 9 10 10 9 11 12 12 14 17 21 19 15 20 25 19 13 16 22 25 26 29 33 26 16 16 20 25 27 26 33 36 26 23 28 22 15 17 21 25 28 28 30 33 34 36 37 37 38 39 39 41
5 5 6 6 6 6 6 6 6 5 5 5 5 6 6 6 6 7 6 7 7 7 7 7 7 8 7 7 7 7 7 8 8 9 9 10 9 9 11 10 10 11 12 13 16 17 21 21 16 23 32 23 15 26 32 30 34 42 40 25 13 15 18 19 20 22 26 28 23 24 29 24 19 23 28 30 31 32 35 37 37 39 40 40 41 41 42 44
6 6 6 5 5 5 5 5 6 6 5 6 6 6 6 6 6 6 6 7 7 7 7 7 7 7 7 7 7 6 7 8 8 8 9 9 9 10 10 10 11 12 12 15 17 16 20 23 20 28 38 27 23 36 40 41 51 50 33 19 14 16 18 17 17 19 23 28 30 29 29 26 28 32 33 32 34 36 38 40 42 44 43 43 44 46 46 45
Wind_Speed
4 5 5 5 7 9 9 8 6 5 4 3 3 3 3 3 3 3 3 3 4 4 4 4 3 3 3 1 1 2 5 8 8 8 8 8 7 5 4 4 5 5 4 4 5 5 6 6 6 7 7 7 7 5 9 11 11 12 11 11 12 13 12 7 7 8 10 14 14 13 14 15 14 12 13 13 14 14 14 14 13 13 13 11 10 12 15 16
4 5 6 6 7 8 7 5 3 1 1 2 3 3 3 2 2 2 2 1 1 0 0 1 3 4 4 5 4 3 4 5 6 7 7 8 9 7 6 4 5 5 5 5 6 6 7 8 8 7 5 5 5 4 8 12 12 12 10 10 13 15 15 11 10 10 11 16 18 17 16 16 16 14 13 15 16 15 15 15 14 15 13 11 10 13 16 15
5 5 7 8 8 7 6 4 4 4 5 5 5 5 6 6 6 6 6 5 4 4 5 5 5 5 6 6 6 5 6 7 6 5 6 7 7 7 8 6 5 6 7 7 7 8 8 9 8 7 4 3 7 8 9 13 12 11 10 11 15 18 18 17 17 16 16 19 21 20 18 19 19 16 15 18 18 17 16 17 16 16 15 13 12 13 14 14
6 6 6 6 6 6 6 6 6 6 5 4 4 5 5 5 5 6 6 7 8 8 9 9 8 7 7 6 6 6 6 8 7 6 7 8 7 7 7 7 8 8 9 9 8 8 8 8 8 7 5 7 9 13 12 14 12 10 13 15 17 19 19 19 18 20 20 21 22 20 18 20 20 18 17 19 21 19 18 19 18 17 16 15 14 14 14 15
7 6 5 4 4 3 3 3 3 3 2 2 2 3 4 4 3 3 4 6 7 9 9 9 8 7 7 6 6 6 6 7 6 6 8 9 9 9 9 9 10 10 10 9 8 8 7 8 9 7 8 7 10 13 14 15 14 13 16 17 18 19 20 19 18 19 20 20 21 20 20 20 19 19 18 20 22 21 20 20 18 17 17 16 16 17 16 17
6 5 4 3 2 2 2 2 2 1 0 1 1 1 1 2 2 2 3 4 6 7 8 8 8 8 7 7 7 7 6 7 8 9 10 10 11 10 10 10 11 10 10 10 9 8 7 7 9 8 9 7 9 13 16 17 17 15 18 20 19 19 20 20 19 19 19 20 21 21 21 20 19 20 19 20 22 21 21 21 18 19 19 17 17 19 19 18
5 4 3 2 2 2 1 1 1 1 1 1 2 2 1 1 2 2 3 4 5 6 7 7 7 7 7 8 7 8 8 8 9 10 10 11 11 11 10 10 11 11 11 11 9 9 8 7 8 7 8 7 7 11 18 20 19 17 20 23 21 20 20 19 20 20 20 21 22 22 21 21 21 21 20 20 20 20 22 21 21 22 21 19 19 20 21 21
4 3 2 1 1 2 3 3 3 3 2 2 3 3 3 3 3 3 4 4 5 5 6 6 6 6 7 7 7 8 8 7 9 10 10 11 11 11 10 11 11 11 11 10 10 9 8 7 6 6 6 7 9 15 21 21 19 20 22 23 21 20 20 20 20 20 20 21 21 22 22 23 22 22 21 20 20 20 21 22 21 22 22 21 21 22 23 23
4 2 1 1 2 3 4 4 4 4 4 4 4 4 4 4 4 4 5 5 5 4 5 5 5 5 5 6 6 7 7 8 9 10 10 11 11 11 11 11 10 10 10 9 9 8 7 7 5 6 8 11 16 20 22 20 20 22 22 22 21 20 20 20 20 20 20 20 20 21 23 24 22 23 23 21 21 20 21 22 22 22 23 23 23 24 25 25
3 2 0 1 2 3 4 5 5 4 5 5 4 4 4 4 4 4 5 5 5 4 4 4 4 4 4 5 5 6 8 8 9 10 11 11 11 12 11 11 10 10 10 9 9 8 8 9 7 9 12 16 19 20 21 20 20 22 21 22 22 21 21 21 21 21 21 21 21 22 24 24 22 24 24 21 21 20 22 23 22 23 24 24 25 25 26 26
2 1 1 2 3 4 6 6 6 5 4 4 4 4 4 4 3 3 4 3 4 4 4 4 4 3 4 5 5 6 8 9 10 11 11 12 11 11 11 11 10 10 10 9 9 9 9 10 10 11 12 15 18 18 18 19 19 19 20 22 22 22 22 22 22 22 22 22 20 21 25 25 23 24 23 21 20 20 23 24 24 25 25 26 27 27 27 27
1 1 2 3 4 6 7 7 6 5 4 3 3 3 3 2 3 2 2 2 2 3 3 3 3 3 5 6 6 6 8 10 10 11 11 11 11 10 10 10 10 10 10 10 10 10 10 10 11 12 12 15 16 14 14 15 16 16 17 20 21 21 22 22 21 20 20 20 19 20 24 24 22 19 17 18 18 18 21 23 24 25 26 27 27 28 27 27
1 2 3 4 5 6 7 6 6 5 4 3 2 2 2 2 2 2 2 2 2 3 3 3 3 4 5 6 7 8 9 10 10 10 9 9 9 9 9 9 9 9 9 10 10 10 10 10 11 12 13 15 15 14 15 15 15 16 17 19 20 20 21 20 18 17 18 19 18 19 23 23 21 19 17 18 19 20 22 23 23 24 26 28 27 28 27 27
3 3 4 5 5 6 5 6 5 5 4 3 2 1 1 1 1 2 2 2 2 3 3 3 4 5 6 6 7 8 9 10 10 9 9 9 9 8 8 8 8 8 8 9 9 9 10 11 11 12 13 14 15 16 17 17 17 17 18 18 17 16 17 18 17 17 18 18 17 18 23 22 19 20 20 20 21 22 23 24 24 25 25 27 27 27 26 26
4 4 5 5 5 4 4 5 6 6 5 4 2 2 2 2 2 2 2 2 3 3 3 4 4 6 7 6 6 8 9 10 9 9 9 9 9 9 9 9 9 9 9 9 8 8 8 9 10 11 12 13 13 14 15 15 15 15 15 13 11 11 14 16 16 17 19 19 17 17 20 19 18 21 21 22 24 25 26 26 26 26 26 26 26 26 26 25
5 5 6 6 4 3 4 6 6 6 6 5 4 3 3 3 3 3 3 3 3 3 4 4 3 6 6 5 5 8 9 10 10 10 9 9 9 9 10 10 10 10 10 10 9 8 7 8 9 9 10 11 11 11 10 12 13 14 13 11 10 10 13 15 15 16 18 19 18 18 21 21 22 24 25 26 27 27 29 29 29 28 28 28 28 27 27 26
6 6 7 6 4 4 5 6 7 7 6 6 5 4 4 3 3 3 3 4 4 4 4 4 4 6 6 5 7 9 9 10 11 11 11 10 10 10 11 11 11 10 10 9 8 7 7 7 8 9 9 9 9 7 7 9 10 8 8 9 10 9 11 14 17 17 16 18 20 22 27 28 26 26 27 27 26 28 28 28 29 29 29 29 29 29 28 28
6 7 7 6 5 5 6 7 7 7 7 6 5 5 4 3 4 4 4 4 5 5 4 4 5 6 6 7 10 11 11 11 12 12 12 11 11 11 12 11 11 10 9 8 7 7 8 8 8 8 8 6 4 4 7 10 9 7 8 11 13 12 12 15 17 17 17 21 24 25 29 30 27 26 27 26 25 26 26 25 27 28 29 28 27 27 27 27
5 6 6 6 5 6 6 7 7 7 7 7 6 5 5 4 4 4 5 5 6 5 5 5 5 6 7 9 12 12 12 12 12 11 11 11 11 11 11 11 10 9 8 6 7 9 10 10 8 5 4 5 6 6 9 12 13 14 15 16 17 16 16 17 18 19 21 24 27 27 28 29 28 25 24 25 26 26 25 24 24 26 27 26 25 24 24 25
4 4 5 5 5 5 5 6 6 7 7 8 7 7 6 5 4 5 6 6 6 6 5 6 7 8 9 11 11 11 11 11 10 10 10 10 11 10 9 9 9 9 7 4 7 10 9 8 7 6 8 10 11 12 13 14 14 15 15 15 15 14 14 16 19 20 21 25 26 24 27 30 29 26 24 26 27 26 24 22 20 21 23 25 24 23 23 24
2 2 2 3 4 5 5 6 6 6 7 7 8 7 7 8 6 6 7 6 6 6 6 7 8 9 10 10 9 9 9 9 9 9 9 10 10 9 8 8 8 7 9 8 9 11 9 7 8 10 12 13 14 15 14 13 11 12 12 11 10 11 13 16 18 21 22 25 25 24 28 30 29 27 24 23 23 18 14 14 14 15 17 19 20 20 21 21
2 2 2 2 3 4 5 6 6 6 6 7 8 8 9 9 7 7 8 6 7 8 7 8 10 10 9 8 8 8 9 10 9 8 9 10 10 9 8 8 6 6 11 11 9 9 9 9 9 10 12 13 13 12 11 10 9 10 9 8 8 10 14 16 19 21 22 24 26 25 27 30 28 22 15 14 17 13 10 10 11 12 14 15 16 16 17 18
2 3 4 3 4 4 5 6 6 7 7 7 7 8 9 9 8 8 8 8 9 9 8 9 10 9 8 8 8 8 9 10 9 8 10 10 9 9 8 8 7 7 10 9 8 7 8 10 10 11 13 13 11 9 8 8 8 8 7 7 10 12 14 16 18 21 22 25 26 22 26 32 25 14 10 13 17 16 14 12 10 11 13 13 14 14 15 15
3 4 4 4 5 5 6 6 7 7 7 8 8 8 9 9 9 9 10 10 11 10 8 9 10 8 8 8 8 9 10 9 8 10 11 10 10 10 9 8 8 8 8 7 7 8 10 12 12 13 13 10 8 7 6 6 5 6 9 11 12 13 14 17 19 21 24 24 20 18 25 28 16 9 16 20 19 18 15 11 8 8 9 10 12 13 14 14
5 5 6 7 7 7 7 7 7 7 7 8 8 8 9 9 10 10 10 11 12 10 8 9 9 8 9 9 9 10 10 8 9 10 10 10 10 9 9 8 8 8 7 7 7 9 9 9 10 10 9 7 6 6 5 4 3 4 11 13 13 15 15 17 19 20 22 19 15 17 16 14 14 17 21 19 16 17 14 9 8 9 10 11 13 14 15 15
6 7 8 9 9 9 9 8 8 8 7 8 8 8 9 10 10 10 10 11 10 9 8 8 9 8 9 9 9 10 9 8 9 10 9 9 9 9 9 8 8 7 6 7 7 8 7 8 8 8 7 5 5 6 4 4 4 5 10 12 14 16 17 18 19 18 17 15 18 20 12 14 26 27 20 15 15 16 13 9 10 13 14 15 15 15 16 15
7 9 11 11 10 10 9 8 9 9 8 8 8 8 9 10 10 9 9 7 6 7 8 8 8 8 9 9 10 10 8 8 9 9 8 9 8 8 8 7 7 6 6 7 6 6 8 9 8 7 7 6 6 6 4 5 7 8 10 12 14 16 17 18 19 18 18 19 22 21 14 16 26 27 20 17 16 16 14 11 14 17 19 19 16 15 16 16
9 11 12 11 8 8 7 7 8 7 7 8 8 8 9 10 9 6 5 3 4 5 6 6 7 8 8 8 9 8 8 8 9 8 8 8 8 8 8 7 7 6 6 5 5 7 9 9 8 7 7 7 7 6 6 7 9 10 11 13 15 17 18 19 19 19 17 17 18 18 12 10 19 26 20 16 16 13 11 10 12 18 21 21 17 15 18 19
10 12 12 8 6 6 6 5 5 6 6 7 7 8 9 9 6 4 2 2 4 5 6 6 7 7 7 7 7 7 7 8 8 8 8 8 7 8 7 7 7 7 6 6 7 8 8 9 8 8 8 8 7 6 8 10 11 12 13 14 16 17 18 16 16 16 12 10 16 18 11 7 15 27 15 9 14 10 9 12 14 18 19 20 19 16 17 19
11 12 11 7 7 7 6 5 5 5 6 7 7 8 9 8 4 3 2 3 6 6 5 6 7 7 7 6 6 6 6 7 8 8 8 8 7 8 8 7 8 8 6 6 8 9 9 10 8 8 8 8 8 8 10 11 12 14 14 14 17 15 12 12 13 12 6 7 11 10 10 7 9 22 16 9 13 13 15 18 18 17 15 16 19 20 19 20
12 12 10 8 8 8 8 7 6 6 7 7 7 8 8 5 3 2 3 4 7 6 5 6 6 6 6 6 6 7 7 7 7 7 7 8 7 8 9 8 8 9 7 7 10 12 11 10 8 8 8 9 10 10 10 12 12 12 11 12 14 12 8 9 9 5 2 5 6 7 9 7 7 20 25 17 16 17 18 18 16 13 13 14 17 20 21 21
12 11 10 9 9 9 8 7 7 7 8 7 7 7 4 3 3 5 5 6 5 5 6 5 5 5 5 6 6 7 7 7 8 7 8 8 7 8 8 8 9 8 6 6 10 13 13 10 9 8 8 9 9 10 10 11 10 9 8 8 8 7 6 5 4 3 5 5 5 5 6 8 20 32 31 20 20 23 19 16 13 10 12 16 17 19 21 20
11 10 9 9 8 7 6 6 7 7 7 7 6 6 3 1 3 6 8 7 5 6 6 4 5 5 5 5 6 7 7 6 7 7 7 8 7 7 7 7 8 5 4 7 9 10 11 11 9 7 8 7 8 10 10 10 10 10 9 5 3 3 3 3 3 3 6 5 8 12 9 13 25 30 26 23 26 26 18 13 11 11 15 18 18 19 20 21
9 9 9 8 8 7 6 6 5 6 6 6 6 6 5 4 5 6 9 9 7 7 6 4 5 4 5 6 6 7 7 6 7 8 8 8 8 7 7 7 7 6 6 7 7 6 7 9 8 7 9 9 11 11 9 11 13 13 12 8 8 7 4 4 3 2 5 7 15 17 9 10 18 24 31 31 23 16 11 12 13 16 19 19 19 19 20 23
8 8 8 7 6 6 5 5 5 5 6 6 7 7 7 6 6 8 9 8 7 7 6 5 5 5 6 6 6 7 7 6 8 9 8 8 9 9 8 8 8 8 6 5 5 6 8 10 9 10 13 14 15 12 11 12 11 12 14 12 12 11 10 9 9 12 11 8 13 15 13 20 29 34 36 26 14 11 12 15 18 20 21 21 20 20 22 25
7 7 6 5 4 4 5 5 5 5 6 6 8 10 10 9 8 10 9 7 7 7 6 6 6 6 6 6 6 7 8 8 9 10 8 8 10 9 9 9 9 8 7 7 7 6 7 10 13 15 17 16 14 13 13 11 10 12 12 13 13 12 12 12 12 15 10 5 9 13 18 27 31 33 32 24 22 24 20 20 20 20 23 26 24 24 26 29
7 6 5 4 4 5 6 6 5 5 6 8 10 11 11 11 11 11 10 9 8 7 7 7 6 6 5 6 8 8 9 9 8 9 10 10 9 8 8 10 10 10 9 9 8 7 9 14 17 16 15 14 13 13 15 14 14 16 15 15 13 11 12 11 7 6 4 4 8 13 19 22 18 22 32 31 32 32 27 24 22 22 28 30 27 27 31 34
7 6 5 4 5 6 7 6 6 6 8 10 11 11 11 11 10 10 9 9 9 8 8 7 6 6 6 8 10 9 10 11 10 11 12 11 9 9 9 11 11 11 10 10 10 10 11 14 17 16 14 13 13 15 17 16 16 18 20 19 15 10 8 8 5 3 4 3 5 9 16 20 21 26 35 38 34 30 26 25 27 29 32 30 29 31 34 38
7 6 6 6 6 7 7 7 7 8 10 11 11 10 9 9 9 9 10 10 10 9 9 8 8 8 8 10 12 12 12 13 13 13 12 10 9 11 14 14 13 12 12 13 12 12 11 10 13 17 17 15 17 19 18 17 17 17 20 22 21 17 13 12 11 7 4 3 6 7 6 14 26 33 37 39 34 27 26 29 32 32 32 31 32 34 37 40
8 7 7 7 7 7 8 8 8 9 11 12 11 10 9 8 9 10 10 11 10 10 10 10 10 10 12 12 13 15 15 15 15 16 15 14 15 16 16 14 13 13 14 16 15 15 13 11 12 18 20 20 21 20 19 20 20 19 22 22 23 22 18 16 18 20 14 5 4 4 4 17 33 38 38 39 35 31 31 31 32 33 34 36 37 38 40 41
8 8 8 8 8 8 8 9 10 10 11 12 11 11 10 11 11 10 11 12 11 11 11 11 12 13 15 15 15 16 17 18 18 17 18 19 19 17 15 15 16 16 18 19 18 16 14 13 16 22 26 27 26 24 25 25 25 25 26 25 24 23 18 11 10 20 22 14 11 7 7 24 39 39 37 39 35 33 32 31 35 38 38 40 40 39 41 40
9 9 8 8 8 8 8 10 10 10 12 11 10 10 11 12 12 11 12 13 13 13 14 14 15 16 17 18 18 18 18 20 22 20 20 20 19 18 18 20 20 20 20 21 21 18 16 16 21 26 29 28 27 27 27 26 27 28 28 27 25 21 21 17 8 11 16 19 25 18 11 29 44 38 35 38 33 32 35 36 39 41 41 41 39 38 40 40
8 8 8 8 8 8 9 10 10 11 11 10 10 11 11 12 13 12 13 13 14 15 16 16 17 17 18 19 19 20 20 21 23 22 21 20 21 21 21 22 22 22 22 21 20 18 16 16 20 25 28 29 29 29 26 24 26 29 29 29 27 25 26 24 19 17 13 18 25 12 8 32 46 38 35 39 37 37 40 40 41 41 41 40 37 38 39 40
7 6 7 7 7 8 9 10 10 11 11 10 11 12 12 13 13 13 13 14 15 16 17 18 18 19 20 20 21 23 22 20 21 23 24 24 24 23 22 23 23 23 23 21 21 19 17 16 16 16 17 20 21 19 18 19 23 25 26 25 27 30 29 26 29 24 17 29 32 11 11 39 48 41 42 44 42 43 43 42 42 40 39 38 37 40 41 40
4 4 5 6 6 7 8 9 10 11 10 11 13 13 13 15 14 14 14 15 16 18 20 20 20 21 22 22 23 25 25 23 23 26 28 28 27 25 24 24 24 26 26 25 25 24 23 23 22 16 9 9 12 14 15 16 15 19 23 24 26 29 28 29 29 21 19 37 37 20 25 51 53 43 45 46 45 46 44 41 39 37 36 38 39 40 40 40
3 4 4 5 7 8 8 9 10 12 11 11 13 14 14 15 15 15 16 18 18 19 21 22 22 23 24 24 25 26 26 26 25 28 30 30 29 28 27 27 28 29 29 28 28 28 28 30 31 30 28 27 30 32 30 25 23 26 30 32 33 32 29 28 26 27 33 39 35 32 41 54 56 49 45 46 45 44 42 40 38 37 37 38 38 38 40 40
4 4 5 5 6 7 7 8 10 12 12 12 14 15 14 15 16 16 18 19 19 20 22 24 24 24 24 25 25 27 29 28 28 30 32 31 30 30 29 30 30 30 30 29 29 29 31 34 36 37 40 41 42 43 40 38 39 40 39 39 40 37 34 31 33 42 44 29 30 46 48 46 53 54 47 46 45 42 40 38 36 36 36 36 38 39 40 39
5 6 6 7 8 8 8 8 10 12 13 14 16 17 17 17 17 17 19 20 22 22 23 26 26 25 25 26 26 29 31 31 31 32 32 31 31 32 33 33 32 32 32 30 31 31 32 38 41 40 42 45 44 44 44 42 44 45 42 42 44 42 42 42 47 55 48 33 39 57 52 47 53 52 45 42 39 36 36 35 34 36 37 38 39 39 38 36
6 7 8 9 10 10 11 11 12 13 13 15 17 18 18 18 18 19 20 22 24 24 25 28 28 26 26 27 28 31 33 32 33 33 32 33 34 35 37 37 35 35 34 33 34 31 31 39 43 39 42 48 46 45 46 44 46 47 43 43 45 45 46 49 53 55 49 48 55 58 54 54 51 44 40 36 33 34 35 35 36 38 38 37 35 34 36 39
8 9 9 10 11 11 12 13 14 15 15 15 17 18 18 19 19 20 21 23 25 26 27 29 28 26 28 30 31 35 34 33 33 33 33 35 36 36 37 38 38 38 37 37 35 32 32 38 43 39 41 50 52 47 44 41 42 42 38 41 46 47 47 49 52 51 49 51 53 51 53 54 46 39 39 36 33 34 33 34 36 36 34 32 31 35 42 46
9 10 11 12 12 11 12 13 13 15 16 16 17 18 19 20 21 22 24 25 26 28 29 30 29 28 31 32 35 37 35 34 34 35 35 37 38 38 37 39 41 40 42 41 38 37 36 39 44 39 36 49 52 38 32 35 34 32 36 44 49 47 46 46 46 46 46 46 45 44 48 49 44 39 37 35 34 34 34 35 34 31 30 32 37 46 49 47
9 10 11 12 13 11 11 13 13 15 17 17 18 20 20 22 23 24 27 28 28 29 30 31 31 32 34 35 37 37 35 36 37 37 38 38 38 39 39 41 42 43 45 44 42 43 41 41 44 34 28 43 43 24 23 27 20 26 41 46 42 38 37 38 39 39 39 38 39 41 43 44 40 36 35 36 35 35 35 33 30 30 34 40 48 51 46 40
Wind_Direction
145 141 138 137 142 142 140 136 127 116 98 74 49 35 33 41 39 55 91 100 109 104 98 109 143 186 182 175 307 316 340 348 356 358 354 349 337 326 309 297 305 299 289 289 289 294 287 279 272 268 270 266 268 271 262 255 248 249 249 245 251 262 266 253 231 233 251 262 271 280 279 278 278 277 274 269 267 268 266 265 264 262 261 259 245 234 237 238
171 173 179 174 168 163 158 154 146 145 333 322 304 299 296 292 316 327 331 351 10 338 221 175 191 194 202 226 232 241 277 306 328 334 335 336 331 323 314 308 306 298 289 285 280 282 274 269 265 260 264 263 267 247 244 257 256 249 239 243 256 256 260 268 266 264 269 275 281 283 281 280 278 277 276 272 269 268 265 263 261 260 261 259 247 237 239 241
156 168 182 188 192 198 205 225 254 276 291 296 294 286 279 274 272 277 274 270 272 279 280 279 271 249 245 245 238 236 244 254 265 282 287 290 297 296 294 289 290 294 288 275 265 266 266 272 270 264 264 206 237 253 245 254 260 254 237 233 252 256 257 264 270 275 277 281 282 281 282 281 278 277 277 274 272 270 267 264 259 259 261 259 251 244 246 245
147 152 162 178 193 211 226 244 260 272 285 291 299 300 291 285 280 276 269 264 260 264 273 278 277 266 261 257 250 250 257 266 268 270 272 271 276 277 275 271 276 286 284 275 265 264 265 271 273 267 254 180 212 254 256 255 255 247 244 238 244 253 256 260 265 272 275 279 280 281 283 280 280 282 277 274 274 273 269 265 263 262 261 261 255 250 250 251
140 139 142 149 167 188 204 216 233 252 278 298 302 301 297 300 296 288 275 269 263 263 268 269 272 271 267 262 259 263 271 283 290 288 283 282 286 284 281 277 278 283 281 277 271 268 266 264 266 256 248 204 206 250 260 260 255 243 252 256 252 255 259 263 267 270 275 279 281 284 284 283 288 287 279 274 274 275 273 271 272 267 262 259 255 254 254 256
133 128 125 118 119 126 135 148 156 168 25 13 355 320 289 290 291 298 292 284 277 272 271 271 274 276 278 276 274 277 274 277 287 290 289 287 286 285 285 283 281 283 280 279 276 273 270 261 262 255 255 239 214 243 257 260 266 262 262 267 265 264 266 270 274 275 278 279 281 284 284 287 288 283 279 276 277 279 278 277 274 268 265 260 254 257 259 262
126 115 105 82 51 24 13 7 351 356 16 3 347 352 337 305 309 325 318 303 292 283 281 277 276 277 280 280 280 281 275 274 282 287 288 287 287 287 287 286 285 285 283 282 279 275 271 264 265 258 255 252 224 240 254 259 271 272 265 268 269 271 275 278 279 278 278 279 280 282 284 284 283 282 282 283 283 280 277 276 272 269 268 263 258 261 265 269
134 121 106 63 17 345 337 334 331 336 332 308 307 321 324 321 326 331 325 314 302 291 286 280 278 277 275 278 280 279 278 283 288 288 289 289 290 291 291 291 290 288 287 284 280 277 273 269 265 260 259 263 247 240 248 259 271 270 267 271 275 278 280 281 280 280 280 280 281 281 281 280 282 284 285 284 283 279 274 272 271 269 268 265 263 265 268 271
141 123 94 8 350 339 337 337 335 327 309 292 285 295 306 313 320 322 319 317 312 299 288 286 283 281 280 283 284 283 287 298 301 299 298 298 299 298 298 296 294 291 289 285 281 276 269 266 252 252 253 246 245 244 250 260 267 270 272 277 282 282 282 282 283 282 281 281 281 280 278 278 282 282 281 280 281 281 275 272 273 271 270 269 268 269 270 271
140 130 115 3 359 359 1 4 359 337 307 292 287 289 293 302 310 314 318 320 316 307 294 289 282 281 279 275 280 286 292 303 306 305 304 304 304 301 300 298 295 294 292 286 281 273 262 263 244 241 246 240 243 249 256 262 265 270 276 279 283 283 284 285 284 284 284 283 282 281 279 281 282 278 280 283 284 283 276 274 276 274 273 273 272 272 271 272
147 158 109 51 31 31 31 25 14 358 335 318 308 301 300 304 306 307 313 313 309 308 304 301 299 300 288 280 295 304 302 310 311 310 309 306 303 300 298 297 296 293 292 288 284 277 266 266 254 248 251 250 253 258 263 269 271 275 279 279 281 283 285 285 286 287 287 286 287 286 283 282 281 280 285 287 283 280 276 275 275 273 274 274 274 273 273 273
187 149 87 67 43 36 31 22 8 356 351 342 331 321 321 315 309 312 313 320 324 318 318 317 317 316 299 294 314 322 312 314 315 315 315 311 309 307 304 302 301 298 296 293 290 284 274 268 261 256 255 259 267 271 271 275 279 283 284 283 286 288 287 287 288 290 289 289 291 289 284 282 284 287 288 284 280 276 273 273 272 273 273 273 273 273 273 273
167 104 79 59 38 30 20 8 357 354 357 352 343 329 323 322 321 335 345 356 359 349 351 342 329 319 309 309 323 323 318 321 323 324 321 319 317 312 311 310 308 306 301 297 291 287 283 275 270 268 265 268 274 276 278 284 287 289 287 287 292 294 292 290 291 291 290 291 294 290 282 283 288 286 282 279 278 275 274 274 274 274 273 273 273 272 272 272
114 86 59 43 27 18 7 0 358 6 15 10 2 355 354 6 13 24 22 26 20 4 0 343 333 326 317 319 323 321 325 327 327 326 324 321 315 312 317 318 316 314 307 303 295 290 286 280 278 275 270 271 274 276 280 283 284 287 288 291 296 292 287 290 296 297 294 295 299 291 284 288 290 284 282 281 278 277 277 277 277 276 274 273 271 270 270 270
95 67 45 33 19 13 11 11 15 26 35 34 38 60 77 78 69 63 52 44 31 9 354 334 330 327 320 315 315 317 321 322 320 317 316 313 311 315 320 320 319 316 312 308 302 297 292 286 282 278 276 275 277 279 283 288 291 293 291 297 304 286 278 290 297 298 297 300 302 294 288 292 293 289 290 287 285 285 285 283 281 278 275 273 271 270 269 268
78 58 44 34 27 28 29 28 31 38 46 51 58 72 81 81 73 58 38 26 15 358 350 340 325 326 324 313 314 316 314 313 312 310 309 309 310 314 316 315 314 311 309 308 304 302 297 293 289 283 280 277 280 282 286 293 296 297 295 302 311 290 284 295 299 298 299 301 302 296 289 288 289 290 289 288 288 288 286 284 283 281 278 276 275 274 272 271
72 57 47 43 46 45 41 38 37 40 47 52 58 65 72 76 67 43 23 10 355 349 354 347 329 330 326 317 320 319 313 310 311 312 312 313 312 313 313 310 309 308 308 307 303 304 304 303 296 290 289 288 290 288 282 280 281 295 298 301 307 288 281 294 296 296 297 297 299 298 294 292 292 292 290 289 287 285 283 283 283 282 279 278 277 276 275 275
71 60 52 50 51 48 44 40 37 39 43 46 50 55 55 58 47 23 9 359 351 347 346 346 339 330 319 318 320 317 315 312 312 315 314 315 314 313 313 311 314 314 317 318 310 313 316 316 312 307 309 306 293 263 254 259 272 294 296 298 299 283 281 290 290 294 296 295 297 297 296 295 295 295 294 293 290 286 284 282 280 279 278 278 278 276 276 274
74 63 54 51 49 46 42 40 36 34 38 40 40 38 35 36 29 14 5 352 351 350 342 346 341 323 313 315 315 313 314 313 314 315 313 315 315 316 315 313 314 312 320 330 309 309 314 315 321 316 286 258 258 266 260 259 269 280 287 295 296 292 293 289 284 290 296 296 297 298 298 298 298 298 297 296 294 291 287 283 280 277 279 280 279 276 273 271
74 58 51 49 46 40 34 32 28 23 28 30 27 25 19 15 11 6 357 338 340 349 345 342 332 320 315 314 313 312 315 315 317 316 315 318 316 316 314 309 317 314 320 333 296 299 307 301 288 260 248 252 266 278 279 274 272 275 281 288 295 303 301 289 285 290 296 298 299 303 303 300 301 304 306 301 296 294 292 289 283 277 276 277 276 273 269 269
50 28 29 33 34 30 21 17 15 10 11 15 15 14 6 5 1 347 340 330 327 333 333 327 320 315 313 313 312 314 316 315 316 313 312 317 313 316 316 315 330 317 306 312 300 303 308 287 268 262 264 270 273 276 280 283 281 281 286 293 303 303 288 280 282 288 295 298 301 307 304 300 304 309 308 298 293 303 306 293 283 277 276 278 280 277 275 274
346 333 322 333 356 5 3 1 359 356 357 2 1 1 1 1 351 333 328 324 319 318 313 310 312 312 312 316 317 317 319 319 320 315 314 318 315 318 320 316 320 289 288 298 297 303 305 286 278 279 278 282 281 280 284 284 283 286 289 298 300 291 284 280 282 289 297 300 305 310 303 303 311 313 306 290 294 319 328 304 291 286 287 285 283 281 279 276
327 319 316 316 318 329 341 344 342 339 343 346 345 349 354 350 341 331 325 317 313 312 305 306 313 317 318 322 323 323 325 325 325 325 324 324 323 323 319 310 303 290 289 293 286 282 279 274 278 284 287 289 285 280 282 280 285 289 288 290 279 278 289 290 292 298 304 306 310 311 303 308 320 317 310 312 311 326 331 316 303 289 288 285 280 279 277 277
319 316 317 314 314 317 320 324 326 324 327 332 334 338 342 342 337 328 320 313 310 307 304 311 318 325 327 329 331 330 330 330 328 331 332 330 330 327 320 313 306 300 297 296 289 276 267 269 277 283 285 285 278 278 283 282 295 289 281 287 283 284 293 296 301 306 311 315 316 315 309 312 324 315 315 320 315 324 332 325 323 308 296 294 290 288 285 282
318 318 315 309 308 307 306 313 314 309 314 323 324 327 332 336 335 327 320 317 314 307 306 316 321 328 332 331 335 336 334 337 336 335 335 333 333 328 323 320 313 312 312 306 297 287 284 284 285 286 284 278 271 279 285 282 297 272 270 279 284 291 298 302 309 312 315 320 316 318 320 309 305 305 315 320 309 316 326 322 327 325 311 305 300 296 291 284
328 329 322 314 304 299 301 304 300 296 305 311 310 317 326 332 332 326 319 312 300 296 303 315 321 328 333 332 337 342 340 341 340 338 337 337 336 331 331 328 321 324 323 319 310 297 305 311 304 299 291 281 270 276 286 279 275 263 268 275 281 292 302 308 314 312 310 313 306 305 301 288 300 311 325 326 307 306 310 308 316 319 315 307 295 289 287 280
332 334 327 318 306 301 300 293 287 289 296 297 300 312 320 328 329 324 323 304 272 286 305 314 322 326 333 335 338 343 343 341 343 345 343 343 343 340 338 336 335 335 327 326 318 303 314 317 312 308 295 285 277 278 284 278 274 276 281 286 289 298 305 310 312 306 304 307 302 296 283 275 293 310 327 320 302 298 294 298 315 316 312 305 291 278 274 269
324 329 326 319 311 310 308 294 283 283 283 284 297 308 315 323 323 326 335 298 264 304 314 319 332 331 332 335 336 340 342 345 348 349 350 351 351 349 343 340 339 337 332 325 309 309 316 313 308 305 292 285 287 287 285 282 280 283 288 292 298 304 307 309 306 303 308 307 296 290 276 251 280 302 319 311 295 294 282 280 306 312 305 297 286 273 269 269
315 322 324 319 315 317 316 303 285 277 276 283 295 303 311 316 317 332 331 268 287 312 311 321 332 331 333 334 338 342 345 351 352 350 356 356 352 352 350 346 343 339 334 323 321 324 320 314 309 300 292 290 294 292 283 283 284 290 296 299 305 308 306 305 299 301 310 286 281 288 267 224 289 302 313 308 296 294 279 277 291 299 295 287 282 278 276 277
306 316 319 310 304 303 300 296 286 278 278 287 295 301 307 307 312 332 272 268 305 303 300 320 322 326 333 335 346 351 351 357 354 352 356 351 352 358 356 353 348 345 334 319 332 336 325 318 310 298 296 294 295 292 285 287 290 295 302 307 313 317 311 297 289 303 316 267 271 272 236 211 299 305 306 294 289 299 299 292 288 285 278 277 284 287 286 284
301 311 311 302 296 292 288 285 280 278 281 287 292 294 300 302 293 263 247 295 313 297 291 315 319 325 332 339 354 354 354 358 352 353 353 349 352 355 356 358 353 348 340 329 333 332 326 319 312 307 298 293 293 289 287 289 291 298 310 322 326 331 320 288 271 275 273 260 248 218 227 219 242 289 302 297 293 308 309 296 287 280 274 278 284 287 288 289
300 306 304 299 295 289 283 276 271 273 277 280 283 282 289 309 275 249 268 297 309 302 302 308 316 327 333 342 352 348 347 350 348 348 347 349 352 349 355 357 352 349 333 321 323 320 320 316 312 306 297 299 296 291 296 295 292 301 315 333 331 321 312 275 232 224 243 260 273 259 275 264 261 284 301 304 306 316 312 294 285 286 290 291 285 282 285 286
300 302 300 297 292 285 278 270 265 265 267 267 268 258 236 269 270 259 273 281 290 311 310 300 309 321 332 337 344 346 341 338 344 344 338 341 338 334 345 345 344 341 297 302 311 310 315 318 311 296 297 305 297 297 303 295 294 301 305 318 305 300 327 275 255 269 258 268 301 301 304 282 279 295 311 314 314 315 303 275 268 292 304 298 287 281 282 284
300 299 298 294 286 278 270 263 254 252 255 254 250 232 212 230 268 278 279 275 283 299 296 294 307 311 327 333 337 341 338 332 335 332 325 327 324 321 330 334 332 325 311 313 312 298 300 306 305 298 300 304 303 305 295 286 291 291 286 280 259 247 232 247 268 282 282 299 297 293 291 269 282 306 315 315 319 315 286 251 263 299 310 301 290 285 287 289
299 298 295 288 277 269 260 248 241 244 244 242 236 219 217 239 275 293 292 283 283 287 280 284 301 304 313 321 324 330 330 321 322 323 314 312 316 314 317 323 321 317 317 312 307 297 284 289 299 301 300 302 303 301 288 283 282 272 269 264 256 251 237 241 268 278 285 305 288 272 262 274 293 311 316 318 325 315 288 270 276 294 308 307 297 291 295 298
300 296 289 279 268 263 254 242 239 239 236 235 229 222 230 247 267 284 291 287 283 282 275 274 288 302 307 312 315 318 317 309 312 316 309 307 310 299 298 310 309 306 304 292 294 292 273 282 295 298 300 301 298 294 286 277 267 264 261 254 256 258 246 247 273 282 277 280 271 252 259 282 301 315 319 320 315 310 304 294 288 289 306 313 303 294 299 305
300 290 281 279 275 267 261 252 240 234 232 232 230 231 243 255 266 277 280 278 276 273 272 273 281 291 296 303 308 311 309 305 306 310 309 308 303 291 293 303 300 298 297 290 289 283 277 288 296 296 295 295 290 287 286 277 266 261 257 258 262 258 252 249 268 295 258 254 268 243 254 277 288 305 314 313 308 310 310 305 299 297 308 317 309 299 301 305
292 282 278 278 274 270 269 259 240 233 234 235 239 247 256 262 269 273 270 269 268 265 266 269 276 281 280 286 295 302 302 299 299 301 304 302 292 287 297 301 298 294 292 294 291 285 288 296 300 299 294 294 289 284 288 285 272 262 259 263 259 249 244 226 221 285 254 248 280 246 255 270 264 280 306 311 308 310 310 303 302 304 310 315 310 303 303 305
283 280 280 277 274 274 270 259 241 233 236 239 245 253 263 267 267 265 264 264 264 264 265 265 271 277 279 284 289 292 293 292 294 294 295 291 282 288 298 298 295 290 292 298 293 290 292 288 294 298 295 292 286 283 287 288 282 270 260 256 250 247 245 227 224 242 242 247 278 265 249 263 272 286 303 310 308 303 299 296 297 303 310 312 310 307 305 304
283 282 280 279 275 269 265 255 243 238 241 245 248 254 267 275 268 263 262 261 262 264 266 267 270 274 281 286 287 289 290 289 288 288 285 280 281 289 295 293 290 290 294 296 293 293 288 268 275 291 290 286 288 290 291 291 289 277 263 254 247 245 241 242 245 244 244 253 272 282 244 261 285 301 303 303 305 297 294 296 297 305 311 312 311 308 304 301
281 280 278 278 272 264 259 252 246 246 250 253 255 260 270 273 268 263 261 260 263 264 266 269 271 275 281 285 284 287 290 288 288 287 283 283 284 285 288 292 294 293 293 293 293 292 284 266 266 277 283 286 293 298 294 290 288 281 275 266 260 254 239 238 260 248 242 239 247 265 260 274 297 311 303 301 306 303 303 306 306 310 311 310 310 306 301 297
279 277 275 274 269 262 256 253 252 254 256 258 261 265 271 270 266 263 262 262 263 265 268 271 273 277 280 282 284 286 287 288 289 288 285 286 286 282 285 292 293 291 291 292 292 289 282 270 265 274 286 291 294 293 287 283 280 275 274 270 266 260 240 228 233 245 239 242 255 263 260 283 304 315 306 305 307 305 309 311 309 310 309 309 308 302 298 295
279 274 270 269 266 260 255 254 256 257 258 262 264 265 268 268 266 266 265 266 267 269 271 273 276 279 279 281 284 285 286 288 290 289 288 288 288 287 289 290 289 289 289 289 290 287 281 272 268 279 291 294 293 290 282 275 268 264 266 265 258 255 252 245 241 249 253 250 257 263 254 281 301 311 306 305 303 303 309 309 307 308 306 307 306 303 301 298
279 272 267 265 262 257 255 256 260 263 266 266 265 265 267 267 267 268 269 269 271 274 276 278 279 280 281 284 285 284 285 286 286 289 289 288 291 292 291 289 288 288 286 285 285 282 278 275 271 280 297 299 294 290 280 267 258 257 263 264 258 255 251 246 244 247 260 261 256 241 253 278 294 304 301 300 299 301 306 305 304 306 306 307 307 304 302 299
276 273 266 265 264 262 261 262 267 275 276 273 272 271 268 268 269 271 273 273 273 275 278 280 282 282 283 284 284 286 286 285 284 287 288 289 293 294 291 290 289 287 287 286 284 280 275 271 265 259 261 274 276 278 278 272 261 260 266 270 271 264 251 247 248 236 247 264 257 225 249 278 292 299 297 297 298 301 304 303 304 305 303 304 302 299 297 296
270 275 273 273 272 269 268 267 271 277 281 282 282 277 271 273 276 277 276 276 276 278 280 282 283 284 285 286 288 289 288 286 284 284 287 290 293 293 292 290 289 288 288 286 283 279 273 271 271 263 255 262 273 279 279 275 272 273 275 277 278 277 266 254 243 233 245 262 262 246 254 275 289 296 298 298 298 300 303 302 301 300 298 297 295 294 295 297
271 281 286 286 280 278 277 276 277 280 283 285 283 280 279 281 283 283 282 282 283 284 284 285 285 286 290 293 293 291 289 288 285 286 291 294 295 294 292 290 288 288 287 284 281 278 270 272 279 275 269 274 281 283 280 275 272 272 272 276 276 276 271 251 240 251 257 254 265 271 267 269 281 293 299 298 298 302 302 301 299 297 296 295 295 295 296 298
275 283 290 288 285 286 286 286 286 284 284 284 281 280 282 284 286 289 289 289 288 288 287 287 287 292 296 296 294 291 289 288 288 292 296 297 296 294 292 291 290 289 288 283 280 278 270 274 283 281 277 280 283 285 283 277 276 274 272 276 277 273 268 257 255 264 262 245 259 277 279 275 280 292 300 301 304 305 302 301 299 298 300 300 300 300 301 305
280 285 290 288 287 288 287 287 290 290 288 286 283 283 285 288 290 292 292 291 290 291 289 288 292 298 298 294 291 289 288 290 294 298 298 295 293 292 292 293 292 290 289 284 281 279 271 276 286 283 280 283 284 285 285 280 280 280 277 280 281 276 270 265 265 270 263 254 263 275 279 281 289 300 306 309 310 304 302 303 302 304 306 306 306 306 308 313
285 288 291 289 288 289 288 289 291 291 288 285 285 288 291 292 293 293 292 291 292 293 291 292 298 300 296 293 291 290 293 297 298 297 295 291 290 291 291 291 291 289 288 285 283 279 270 274 283 282 280 285 287 287 286 283 284 283 279 281 282 279 274 268 268 271 263 260 272 277 273 280 298 310 308 309 309 307 307 305 303 305 305 303 304 307 312 314
289 290 292 291 291 292 292 293 293 291 291 290 292 294 294 294 295 295 293 291 293 294 294 297 301 298 295 294 292 294 299 300 296 293 291 289 289 290 288 288 288 288 286 284 283 279 272 273 279 279 277 284 290 292 291 289 287 280 275 281 284 282 280 278 278 278 272 270 279 278 272 284 305 311 307 309 311 307 302 299 300 301 299 303 309 312 314 312
295 294 294 294 294 296 296 296 296 295 296 298 298 298 297 297 298 299 298 295 295 297 299 301 302 299 297 296 296 299 301 297 294 293 291 289 289 289 288 286 287 286 284 282 281 279 276 274 275 274 272 281 288 294 296 296 292 276 279 289 294 291 287 288 287 285 282 278 277 275 280 294 305 305 306 308 305 300 297 297 301 302 306 311 313 314 313 308